This is the latest recevied weather packets stored in our database for station/object KD7JB. If no packets are shown the sender has not sent any weather packets the latest 10 day(s).
| Time | Temp. | Humidity | Pressure | Rain* | Wind** | Luminosity | Snow |
|---|---|---|---|---|---|---|---|
| 1777695689 | 13.33° C | 49% | 1178.3 hPa | 0 mm | - | 0 W/m² | - |
| 1777695387 | 13.89° C | 48% | 1178.2 hPa | 0 mm | - | 0 W/m² | - |
| 1777695084 | 13.89° C | 48% | 1178.1 hPa | 0 mm | - | 0 W/m² | - |
| 1777694781 | 13.33° C | 49% | 1177.8 hPa | 0 mm | - | 0 W/m² | - |
| 1777694478 | 13.33° C | 49% | 1178 hPa | 0 mm | - | 0 W/m² | - |
| 1777694174 | 13.33° C | 49% | 1177.9 hPa | 0 mm | - | 0 W/m² | - |
| 1777693871 | 12.78° C | 51% | 1177.8 hPa | 0 mm | - | 0 W/m² | - |
| 1777693569 | 13.33° C | 51% | 1177.9 hPa | 0 mm | - | 0 W/m² | - |
| 1777693267 | 13.33° C | 51% | 1177.6 hPa | 0 mm | - | 0 W/m² | - |
| 1777692965 | 13.33° C | 51% | 1177.6 hPa | 0 mm | - | 0 W/m² | - |
| 1777692662 | 13.33° C | 51% | 1177.9 hPa | 0 mm | - | 0 W/m² | - |
| 1777692358 | 13.33° C | 51% | 1177.6 hPa | 0 mm | - | 1 W/m² | - |
| 1777692055 | 13.33° C | 52% | 1177.8 hPa | 0 mm | - | 1 W/m² | - |
| 1777691753 | 13.89° C | 52% | 1177.6 hPa | 0 mm | - | 2 W/m² | - |
| 1777691450 | 13.89° C | 52% | 1177.6 hPa | 0 mm | - | 3 W/m² | - |
| 1777691149 | 13.89° C | 52% | 1177.5 hPa | 0 mm | - | 5 W/m² | - |
| 1777690846 | 13.89° C | 52% | 1177.4 hPa | 0 mm | - | 7 W/m² | - |
| 1777690543 | 13.89° C | 52% | 1177.4 hPa | 0 mm | - | 10 W/m² | - |
| 1777690242 | 13.89° C | 52% | 1177.6 hPa | 0 mm | - | 11 W/m² | - |
| 1777689939 | 13.89° C | 53% | 1177.5 hPa | 0 mm | - | 13 W/m² | - |
| 1777689637 | 13.89° C | 53% | 1177.4 hPa | 0 mm | - | 16 W/m² | - |
| 1777689334 | 13.89° C | 52% | 1177.5 hPa | 0 mm | - | 20 W/m² | - |
| 1777689031 | 13.89° C | 52% | 1177.3 hPa | 0 mm | - | 24 W/m² | - |
| 1777688728 | 14.44° C | 51% | 1177.4 hPa | 0 mm | - | 27 W/m² | - |
| 1777688426 | 14.44° C | 50% | 1177.4 hPa | 0 mm | - | 31 W/m² | - |
* Rain latest hour (hover to see other rain measurements)
** Current wind speed in m/s (hover to see current wind gust speed)